Track STARLINK-3260 now! 10-day predictions STARLINK-3260 is classified as:
1 50205U 21125BB 22175.91668981 .00038744 00000-0 24403-2 0 9999 2 50205 53.2160 166.4254 0002504 50.1107 280.0139 15.08820548 32317